Location: Newark
(40.9833°N, 0.0333°W)
Time: 00:06:28
(UTC+00:00)

deb Explorer IX - Pass Details

Date: 05 November 2020
Orbit: 537 x 1105 km, 38.8° (Epoch: 03 December)

Event Time Altitude Azimuth Distance (km) Brightness Sun altitude
Rises 05:38:09 0° 274° (W) 3,186 - -11.3°
Reaches altitude 10° 05:40:27 10° 271° (W) 2,345 - -10.9°
Exits shadow 05:41:03 13° 270° (W) 2,133 ? -10.8°
Maximum altitude 05:45:59 63° 191° (SSW) 981 ? -9.9°
Drops below altitude 10° 05:52:28 10° 112° (ESE) 2,736 ? -8.7°
Sets 05:55:19 0° 110° (ESE) 3,757 ? -8.2°
